Regional Weather Roundup
Issued by NWS

Home | Current Version | Previous Version | Graphics & Text | Print | Product List | Glossary On
Versions: 1 2 3 4 5 6 7 8 9 10 11 12 13 14 15 16 17 18 19 20 21 22 23 24 25 26 27 28 29 30 31 32 33 34 35 36 37 38 39 40 41 42 43 44 45 46 47 48 49 50
000
ASUS43 KLSX 230759
RWRMO

WEATHER SUMMARY FOR MISSOURI
NATIONAL WEATHER SERVICE SPRINGFIELD MO
300 AM CDT SUN JUL 23 2017

NOTE: "FAIR" INDICATES FEW OR NO CLOUDS BELOW 12,000 FEET WITH NO
       SIGNIFICANT WEATHER AND/OR OBSTRUCTIONS TO VISIBILITY.
       CURRENT SKY AND/OR WEATHER CONDITIONS ARE NOT AVAILABLE FOR
       CHILLICOTHE AND FARMINGTON.

MOZ001>031-035>038-043-044-053-054-230900-
...NORTHERN AND WESTERN MISSOURI...

CITY           SKY/WX    TMP DP  RH WIND       PRES   REMARKS
KANSAS CTY INT CLOUDY    74  71  91 SE8       29.91F
KANSAS C DTWN  CLOUDY    74  71  91 SW6       29.91S
LEE`S SUMMIT   CLOUDY    71  70  96 SW6       29.93F
ST JOSEPH      MOCLDY    74  73  97 CALM      29.91F
CHILLICOTHE      N/A     75  71  87 S5        29.93F
KIRKSVILLE     CLOUDY    76  72  87 S14G21    29.94S

$$
MOZ066>068-077>081-088>096-101>105-230900-
...SOUTHWEST MISSOURI...

CITY           SKY/WX    TMP DP  RH WIND       PRES   REMARKS
SPRINGFIELD    CLOUDY    81  73  76 NW7       29.93R
JOPLIN         MOCLDY    80  69  69 N8        29.95R

$$
MOZ032>034-039>042-045>050-055>058-069>072-230900-
...CENTRAL MISSOURI...

CITY           SKY/WX    TMP DP  RH WIND       PRES   REMARKS
COLUMBIA       LGT RAIN  71  68  90 N17       29.97R
JEFFERSON CITY TSTM      74  71  91 N10G23    29.95R
ROLLA          CLOUDY    78  68  71 NW24G36   29.93R
SEDALIA        LGT RAIN  71  71 100 NE16      29.93F
OSAGE BEACH    CLOUDY    77  67  71 N8        29.94R

$$
MOZ051-052-059>065-230900-
...EAST CENTRAL MISSOURI...

CITY           SKY/WX    TMP DP  RH WIND       PRES   REMARKS
ST LOUIS INTL  CLOUDY    85  72  65 W26G35    29.81R THUNDER HX  91
SPIRIT OF STL  TSTM      76  72  87 W12       29.80R
ST CHARLES     LGT RAIN  85  79  82 SW12      29.79R HX  98

$$
MOZ072>076-082>087-097>100-106>115-230900-
...SOUTH CENTRAL AND SOUTHEAST MISSOURI...

CITY           SKY/WX    TMP DP  RH WIND       PRES   REMARKS
CAPE GIRARDEAU CLEAR     81  74  79 SW8       29.82F
FARMINGTON     PTCLDY    84  72  67 W8        29.85F
POPLAR BLUFF   CLEAR     78  76  93 S5        29.83F
WEST PLAINS    CLOUDY    77  72  84 W6        29.91R

$$



USA.gov is the U.S. government's official web portal to all federal, state and local government web resources and services.